Regional Weather Roundup
Issued by NWS

Home | Current Version | Previous Version | Graphics & Text | Print | Product List | Glossary On
Versions: 1 2 3 4 5 6 7 8 9 10 11 12 13 14 15 16 17 18 19 20 21 22 23 24 25 26 27 28 29 30 31 32 33 34 35 36 37 38 39 40 41 42 43 44 45 46 47 48 49 50
000
ASUS43 KLMK 251702
RWRKY
KENTUCKY REGIONAL WEATHER ROUNDUP
NATIONAL WEATHER SERVICE LOUISVILLE KY
100 PM EDT FRI JUL 25 2014

NOTE "FAIR" INDICATES FEW OR NO CLOUDS BELOW 12,000 FEET
WITH NO SIGNIFICANT WEATHER AND/OR OBSTRUCTIONS TO VISIBILITY.

KYZ001>023-026-027-061>063-070>075-251800-
WESTERN AND SOUTH CENTRAL KENTUCKY

CITY           SKY/WX    TMP DP  RH WIND       PRES   REMARKS
PADUCAH        SUNNY     81  60  48 SE5       30.04F
HENDERSON      MOSUNNY   75  55  50 N5        30.05F
OWENSBORO      MOSUNNY   78  54  43 SW7       30.07F
HOPKINSVILLE   MOSUNNY   80  56  43 NW5       30.07F
BOWLING GREEN  PTSUNNY   82  56  40 VRB3      30.07F
GLASGOW        MOSUNNY   78  54  43 CALM      30.07F
$$

KYZ024-025-028>034-038-045-046-053-251800-
NORTH CENTRAL KENTUCKY

CITY           SKY/WX    TMP DP  RH WIND       PRES   REMARKS
LOUISVILLE/SDF PTSUNNY   80  53  39 NE5       30.07F
LOUISVILLE/LOU SUNNY     79  52  38 N5        30.08F
FORT KNOX      MOSUNNY   76  56  49 VRB3      30.07F
$$

KYZ035>037-039>044-047>052-055>060-089>105-251800-
NORTHEAST KENTUCKY

CITY           SKY/WX    TMP DP  RH WIND       PRES   REMARKS
LEXINGTON      PTSUNNY   78  56  46 NW5       30.09F
COVINGTON      MOSUNNY   75  54  47 W6        30.09F
FRANKFORT      MOSUNNY   78  54  43 CALM      30.08F
$$

KYZ054-064>069-076>088-106>120-251800-
SOUTHEAST KENTUCKY

CITY           SKY/WX    TMP DP  RH WIND       PRES   REMARKS
JACKSON        PTSUNNY   71  61  70 NW3       30.11F
LONDON         CLOUDY    71  60  68 W3        30.11F
SOMERSET       CLOUDY    70  63  78 E5        30.12S
MIDDLESBORO    MOSUNNY   74  64  70 E5        30.09F
MONTICELLO     PTSUNNY   71  63  76 CALM      30.12F
$$




USA.gov is the U.S. government's official web portal to all federal, state and local government web resources and services.